Stations météo

réclame
Mon MeteoGroup
Pembrey Sands, Grande-Bretagne (3605): Température de l'air & dewpoint: 11.07.2018 12:00:00 - 17.07.2018 12:00:00 (BST)Pembrey Sands, Grande-Bretagne (3605): Vitesse du vent: 11.07.2018 12:00:00 - 17.07.2018 12:00:00 (BST)Pembrey Sands, Grande-Bretagne (3605): Direction du vent: 11.07.2018 12:00:00 - 17.07.2018 12:00:00 (BST)Pembrey Sands, Grande-Bretagne (3605): reduced air pressure: 11.07.2018 12:00:00 - 17.07.2018 12:00:00 (BST)Pembrey Sands, Grande-Bretagne (3605): visibility: 11.07.2018 12:00:00 - 17.07.2018 12:00:00 (BST)Pembrey Sands, Grande-Bretagne (3605): Quantités de précipitations: 11.07.2018 12:00:00 - 17.07.2018 12:00:00 (BST)
Date & Time tt [°C] td [°C] ff [km/h] ff [knt] dd ppp [hPa] vv [km] rr [mm]
17.07.2018 12:00:00 18,6 12,0 18 10 SSW 1016,8 27 0,0
17.07.2018 11:00:00 17,8 11,4 8 4 SW 1016,7 29 0,0
17.07.2018 10:00:00 17,2 11,7 5 3 NE 1016,2 30 0,0
17.07.2018 09:00:00 15,2 12,3 15 8 NNW 1016,3 30 0,0
17.07.2018 08:00:00 14,6 13,5 9 5 NW 1015,9 25 0,0
17.07.2018 07:00:00 13,1 12,5 5 3 NE 1015,6 27 0,0
17.07.2018 06:00:00 9,8 9,0 9 5 NE 1015,2 18 0,0
17.07.2018 05:00:00 9,9 9,0 8 4 E 1015,1 25 0,0
17.07.2018 04:00:00 10,3 8,8 4 2 NNE 1015,3 16 0,0
17.07.2018 03:00:00 13,7 11,1 4 2 NW 1015,2 27 0,0
17.07.2018 02:00:00 16,5 13,4 21 11 W 1015,4 30 0,0
17.07.2018 01:00:00 16,6 13,0 22 12 W 1015,7 30 0,0
17.07.2018 00:00:00 16,6 12,9 18 10 W 1015,8 30 0,0
16.07.2018 23:00:00 17,0 13,0 21 11 W 1015,8 26 0,0
16.07.2018 22:00:00 17,1 12,4 21 11 WNW 1015,6 23 0,0
16.07.2018 21:00:00 17,8 11,1 26 14 W 1015,2 27 0,0
16.07.2018 20:00:00 18,4 11,3 28 15 W 1014,9 28 0,0
16.07.2018 19:00:00 18,5 11,3 28 15 W 1014,5 29 0,0
16.07.2018 18:00:00 18,4 12,0 29 16 W 1014,3 30 0,0
16.07.2018 17:00:00 19,2 13,2 24 13 WNW 1014,1 35 0,0
16.07.2018 16:00:00 20,0 14,8 28 15 W 1013,9 35 0,0
16.07.2018 15:00:00 18,8 15,9 37 20 SW 1013,7 21 0,0
16.07.2018 14:00:00 19,1 16,3 35 19 SW 1013,6 30 0,0
16.07.2018 13:00:00 20,2 16,6 21 11 SSW 1013,1 30 0,0
16.07.2018 12:00:00 19,7 16,7 31 17 S 1013,4 20 0,0
16.07.2018 11:00:00 20,6 16,1 28 15 S 1013,5 13 0,0
16.07.2018 10:00:00 19,8 15,8 26 14 S 1013,5 12 0,0
16.07.2018 09:00:00 19,1 16,3 24 13 S 1013,7 10 0,0
16.07.2018 08:00:00 18,0 16,2 24 13 S 1013,8 10 0,0
16.07.2018 07:00:00 17,9 16,5 22 12 SSW 1013,8 11 0,0
16.07.2018 06:00:00 18,0 16,8 18 10 SSW 1013,9 11 0,0
16.07.2018 05:00:00 18,0 16,9 16 9 SSW 1014,1 11 0,0
16.07.2018 04:00:00 18,3 17,0 18 10 SSW 1014,3 12 0,0
16.07.2018 03:00:00 18,4 17,1 16 9 SSW 1014,6 13 0,0
16.07.2018 02:00:00 18,4 16,9 18 10 S 1015,1 15 0,0
16.07.2018 01:00:00 18,2 16,6 21 11 S 1015,5 16 0,0
16.07.2018 00:00:00 18,5 16,4 18 10 S 1015,5 18 0,0
15.07.2018 23:00:00 18,2 16,1 15 8 SSW 1015,4 18 0,0
15.07.2018 22:00:00 18,4 16,3 15 8 SSW 1015,3 14 0,0
15.07.2018 21:00:00 18,6 16,4 13 7 SW 1015,1 12 0,0
15.07.2018 20:00:00 19,1 16,4 15 8 WSW 1015,3 17 0,0
15.07.2018 19:00:00 20,2 16,4 16 9 WSW 1015,5 21 0,0
15.07.2018 18:00:00 20,6 15,9 13 7 WSW 1015,8 22 0,0
15.07.2018 17:00:00 21,7 16,2 13 7 SW 1016,1 24 0,0
15.07.2018 16:00:00 21,0 15,2 18 10 SSW 1016,5 25 0,0
15.07.2018 15:00:00 21,4 15,0 21 11 SSW 1016,6 29 0,0
15.07.2018 14:00:00 21,0 15,5 18 10 SSW 1016,9 28 0,0
15.07.2018 13:00:00 20,5 15,7 18 10 SSW 1017,3 25 0,0
15.07.2018 12:00:00 20,4 16,0 24 13 S 1017,3 24 0,0
15.07.2018 11:00:00 19,6 16,2 18 10 S 1017,3 22 0,0
15.07.2018 10:00:00 18,8 16,1 21 11 S 1017,4 16 0,0
15.07.2018 09:00:00 17,5 16,3 18 10 S 1017,6 11 0,0
15.07.2018 08:00:00 17,1 16,3 16 9 S 1017,5 8 0,0
15.07.2018 07:00:00 15,3 14,5 8 4 SE 1017,5 10 0,0
15.07.2018 06:00:00 13,8 12,1 4 2 S 1017,3 9 0,0
15.07.2018 05:00:00 17,3 15,9 15 8 SW 1017,4 17 0,0
15.07.2018 04:00:00 17,3 15,9 18 10 SSW 1017,8 19 0,0
15.07.2018 03:00:00 17,6 16,1 16 9 SSW 1018,0 19 0,0
15.07.2018 02:00:00 17,3 16,0 15 8 SW 1018,4 23 0,0
15.07.2018 01:00:00 17,8 15,5 13 7 SW 1018,7 26 0,0
15.07.2018 00:00:00 17,6 15,0 11 6 WSW 1018,9 28 0,0
14.07.2018 23:00:00 17,9 14,8 15 8 WSW 1019,0 29 0,0
14.07.2018 22:00:00 18,2 15,3 22 12 WSW 1019,0 26 0,0
14.07.2018 21:00:00 18,4 15,2 24 13 SW 1019,0 23 0,0
14.07.2018 20:00:00 18,8 15,1 26 14 SW 1019,3 25 0,0
14.07.2018 19:00:00 19,3 14,9 29 16 SW 1019,5 27 0,0
14.07.2018 18:00:00 19,6 14,9 28 15 SW 1019,7 27 0,0
14.07.2018 17:00:00 20,4 15,8 28 15 SW 1019,8 30 0,0
14.07.2018 16:00:00 20,5 15,6 24 13 SSW 1020,2 27 0,0
14.07.2018 15:00:00 20,7 16,0 22 12 SSW 1020,5 25 0,0
14.07.2018 14:00:00 20,8 15,9 26 14 SSW 1021,0 25 0,0
14.07.2018 13:00:00 20,2 15,6 24 13 SSW 1021,0 22 0,0
14.07.2018 12:00:00 19,6 15,1 18 10 SSW 1021,2 21 0,0
14.07.2018 11:00:00 18,9 14,1 13 7 SSW 1021,5 21 0,0
14.07.2018 10:00:00 17,8 12,5 8 4 SW 1021,5 23 0,0
14.07.2018 09:00:00 17,5 12,8 5 3 WNW 1021,5 17 0,0
14.07.2018 08:00:00 15,4 12,5 8 4 NNW 1021,5 16 0,0
14.07.2018 07:00:00 12,6 11,4 2 1 ENE 1021,4 18 0,0
14.07.2018 06:00:00 11,7 10,8 13 7 E 1021,3 17 0,0
14.07.2018 05:00:00 8,3 6,7 8 4 E 1021,4 12 0,0
14.07.2018 04:00:00 10,5 8,8 11 6 N 1021,9 17 0,0
14.07.2018 03:00:00 11,0 8,6 9 5 N 1022,0 19 0,0
14.07.2018 02:00:00 13,4 11,0 18 10 NW 1022,1 23 0,0
14.07.2018 01:00:00 12,8 10,5 11 6 NNW 1022,1 23 0,0
14.07.2018 00:00:00 14,6 11,0 9 5 NNW 1022,2 30 0,0
13.07.2018 23:00:00 15,1 10,8 13 7 N 1022,1 30 0,0
13.07.2018 22:00:00 16,8 10,9 13 7 N 1021,9 30 0,0
13.07.2018 21:00:00 18,8 11,1 18 10 N 1021,4 29 0,0
13.07.2018 20:00:00 20,5 11,8 18 10 N 1021,1 29 0,0
13.07.2018 19:00:00 21,8 13,0 15 8 NW 1020,9 29 0,0
13.07.2018 18:00:00 20,7 15,5 15 8 SW 1021,1 25 0,0
13.07.2018 17:00:00 20,8 14,4 21 11 SW 1021,3 24 0,0
13.07.2018 16:00:00 20,6 16,0 22 12 SW 1021,7 23 0,0
13.07.2018 15:00:00 19,4 15,4 22 12 SSW 1022,1 12 0,0
13.07.2018 14:00:00 19,1 15,1 24 13 SSW 1022,3 11 0,0
13.07.2018 13:00:00 19,9 16,2 22 12 SSW 1022,3 12 0,0
13.07.2018 12:00:00 19,9 15,3 21 11 SW 1022,5 14 0,0
13.07.2018 11:00:00 19,6 14,8 11 6 WNW 1022,2 16 0,0
13.07.2018 10:00:00 18,6 15,0 13 7 NW 1022,1 14 0,0
13.07.2018 09:00:00 17,5 15,0 8 4 NNW 1022,2 12 0,0
13.07.2018 08:00:00 16,4 14,8 11 6 NNE 1022,1 9 0,0
13.07.2018 07:00:00 15,6 14,6 11 6 N 1021,9 6 0,0
13.07.2018 06:00:00 15,0 13,9 13 7 N 1021,7 7 0,0
13.07.2018 05:00:00 15,0 13,8 15 8 NNE 1021,9 6 0,0
13.07.2018 04:00:00 14,6 13,2 9 5 N 1021,9 7 0,0
13.07.2018 03:00:00 14,9 13,4 11 6 NNE 1022,0 8 0,0
13.07.2018 02:00:00 14,8 13,2 8 4 NNE 1022,2 9 0,0
13.07.2018 01:00:00 14,9 13,1 15 8 N 1022,2 10 0,0
13.07.2018 00:00:00 15,6 13,4 18 10 N 1022,3 14 0,0
12.07.2018 23:00:00 15,6 13,3 16 9 N 1022,2 15 0,0
12.07.2018 22:00:00 16,3 13,5 16 9 N 1021,9 17 0,0
12.07.2018 21:00:00 18,3 13,8 16 9 N 1021,5 23 0,0
12.07.2018 20:00:00 19,8 13,6 22 12 NNW 1021,4 26 0,0
12.07.2018 19:00:00 21,9 14,2 24 13 NW 1021,1 23 0,0
12.07.2018 18:00:00 22,0 13,8 18 10 NNW 1021,1 24 0,0
12.07.2018 17:00:00 21,8 14,2 13 7 NNE 1021,5 22 0,0
12.07.2018 16:00:00 21,8 15,7 9 5 WSW 1021,7 18 0,0
12.07.2018 15:00:00 21,4 15,5 11 6 SW 1021,6 19 0,0
12.07.2018 14:00:00 21,7 15,0 15 8 SW 1021,9 19 0,0
12.07.2018 13:00:00 20,4 14,8 15 8 S 1021,9 19 0,0
12.07.2018 12:00:00 20,7 14,5 11 6 WNW 1021,8 23 0,0
12.07.2018 11:00:00 20,5 14,6 18 10 NW 1021,6 22 0,0
12.07.2018 10:00:00 20,3 14,5 13 7 NNE 1021,6 26 0,0
12.07.2018 09:00:00 18,4 14,8 16 9 N 1021,5 25 0,0
12.07.2018 08:00:00 17,2 14,2 16 9 N 1021,5 24 0,0
12.07.2018 07:00:00 16,2 14,2 13 7 N 1021,4 20 0,0
12.07.2018 06:00:00 15,4 14,0 18 10 N 1021,1 15 0,0
12.07.2018 05:00:00 15,4 13,9 15 8 N 1021,1 12 0,0
12.07.2018 04:00:00 15,2 13,9 15 8 N 1021,3 12 0,0
12.07.2018 03:00:00 16,0 14,1 18 10 NNE 1021,3 16 0,0
12.07.2018 02:00:00 15,1 12,9 4 2 NE 1021,4 11 0,0
12.07.2018 01:00:00 15,4 13,7 16 9 N 1021,4 11 0,0
12.07.2018 00:00:00 15,6 13,4 16 9 N 1021,4 14 0,0
11.07.2018 23:00:00 16,9 13,0 9 5 NNE 1021,6 19 0,0
11.07.2018 22:00:00 18,0 12,7 13 7 N 1021,6 27 0,0
11.07.2018 21:00:00 20,2 12,3 13 7 N 1021,2 27 0,0
11.07.2018 20:00:00 20,5 15,0 13 7 WNW 1021,3 22 0,0
11.07.2018 19:00:00 20,3 15,8 8 4 W 1021,2 21 0,0
11.07.2018 18:00:00 20,2 15,4 5 3 W 1021,1 22 0,0
11.07.2018 17:00:00 21,3 14,7 9 5 SW 1021,3 22 0,0
11.07.2018 16:00:00 20,8 14,4 13 7 WSW 1021,7 22 0,0
11.07.2018 15:00:00 20,2 13,8 11 6 WSW 1022,1 24 0,0
11.07.2018 14:00:00 20,2 13,5 13 7 SW 1022,1 24 0,0
11.07.2018 13:00:00 21,4 14,6 13 7 SW 1022,4 23 0,0
11.07.2018 12:00:00 21,0 13,2 15 8 S 1022,3 25 0,0

tt = Température de l'air
td = dewpoint
ff = Vitesse du vent
dd = Direction du vent
ppp = reduced air pressure
vv = visibility
rr = Quantités de précipitations

stations d'obs. à proximité